Flag for Poland Weather past 2 weeks in Koszalin, Poland

Now
62 °F

Overcast.


Feels Like: 62 °F
Forecast: 52 / 65 °F
Wind: 2 mph from Southwest

Location: Koszalin

Current Time: Oct 2, 2014 at 3:04:22 PM

Latest Report: Oct 2, 2014 at 2:00 PM


Visibility: 7 mi

Pressure: 30.41 "Hg

Humidity: 75%

Dew point: 54 °F

Location of KoszalinLocation

Historic Weather in Koszalin — Graph

°F

Koszalin temperature yesterday

Maximum temperature yesterday: 62 °F (at 4:00 PM)
Minimum temperature yesterday: 53 °F (at 5:00 AM)
Average temperature yesterday: 57 °F

Past Weeks' High & Low Weather Summary

 TemperatureHumidityPressure
High72 °F (Sep 19, 4:00 PM)94% (Sep 26, 8:00 AM)30.41 "Hg (Sep 26, 8:00 AM)
Low40 °F (Sep 24, 3:00 AM)35% (Sep 18, 4:00 PM)29.64 "Hg (Sep 22, 7:00 AM)
Average57 °F77%30.05 "Hg
* Reported Sep 17 1:00 PM — Oct 2 1:00 PM, Koszalin, Weather by CustomWeather, © 2014

Note: Actual official high and low records may vary slightly from our data, if they occured in-between our weather recording intervals... More about our weather records

Advertising

Koszalin weather history for previous 24 hours

 ConditionsComfort  
Time TempWeatherWind HumidityBarometerVisibility
1:00 PM
Oct 2
62 °FOvercast.2 mph77%30.41 "Hg7 mi
12:00 PM61 °FFog.2 mph79%30.41 "Hg6 mi
11:00 AM59 °FFog.2 mph82%30.41 "Hg6 mi
10:00 AM57 °FFog.2 mph84%30.41 "Hg5 mi
9:00 AM56 °FFog.2 mph86%30.40 "Hg4 mi
8:00 AM56 °FFog.2 mph88%30.39 "Hg5 mi
7:00 AM55 °FFog.2 mph88%30.38 "Hg4 mi
6:00 AM56 °FFog.3 mph89%30.37 "Hg5 mi
5:00 AM56 °FFog.3 mph89%30.37 "Hg5 mi
4:00 AM56 °FFog.2 mph89%30.37 "Hg4 mi
3:00 AM56 °FFog.2 mph89%30.37 "Hg4 mi
2:00 AM56 °FFog.2 mph89%30.37 "Hg4 mi
1:00 AM57 °FFog.2 mph89%30.36 "Hg4 mi
12:00 AM57 °FFog.3 mph88%30.36 "Hg4 mi
11:00 PM
Oct 1
58 °FFog.2 mph86%30.35 "Hg4 mi
10:00 PM58 °FOvercast.3 mph84%30.35 "Hg6 mi
9:00 PM59 °FOvercast.3 mph84%30.35 "Hg7 mi
8:00 PM60 °FOvercast.2 mph82%30.35 "Hg10 mi
7:00 PM60 °FOvercast.2 mph80%30.33 "Hg8 mi
6:00 PM61 °FOvercast.1 mph77%30.33 "Hg11 mi
5:00 PM62 °FOvercast.2 mph75%30.32 "Hg12 mi
4:00 PM62 °FOvercast.3 mph72%30.32 "Hg15 mi
3:00 PM62 °FOvercast.3 mph75%30.33 "Hg16 mi
Weather by CustomWeather, © 2014

See weather overviewHow to use our weather pages